This is the latest recevied weather packets stored in our database for station/object XE2KK-10. If no packets are shown the sender has not sent any weather packets the latest 10 day(s).
| Time | Temp. | Humidity | Pressure | Rain* | Wind** | Luminosity | Snow |
|---|---|---|---|---|---|---|---|
| 1778117352 | 30.56° C | 55% | 1009.3 hPa | 0 mm | - | 0 W/m² | - |
| 1778117053 | 30.56° C | 54% | 1009.3 hPa | 0 mm | - | 0 W/m² | - |
| 1778116753 | 31.11° C | 54% | 1009.1 hPa | 0 mm | - | 1 W/m² | - |
| 1778116453 | 31.11° C | 54% | 1009.1 hPa | 0 mm | - | 2 W/m² | - |
| 1778116153 | 31.11° C | 53% | 1008.9 hPa | 0 mm | - | 7 W/m² | - |
| 1778115852 | 31.11° C | 53% | 1008.8 hPa | 0 mm | - | 12 W/m² | - |
| 1778115552 | 31.11° C | 53% | 1008.6 hPa | 0 mm | - | 15 W/m² | - |
| 1778115253 | 31.11° C | 53% | 1008.4 hPa | 0 mm | - | 21 W/m² | - |
| 1778114953 | 31.67° C | 52% | 1008.5 hPa | 0 mm | - | 25 W/m² | - |
| 1778114653 | 31.67° C | 52% | 1008.2 hPa | 0 mm | - | 30 W/m² | - |
| 1778114353 | 31.67° C | 51% | 1008.1 hPa | 0 mm | - | 34 W/m² | - |
| 1778114052 | 32.22° C | 50% | 1008.3 hPa | 0 mm | - | 36 W/m² | - |
| 1778113752 | 32.22° C | 50% | 1008.1 hPa | 0 mm | - | 35 W/m² | - |
| 1778113453 | 32.22° C | 49% | 1007.9 hPa | 0 mm | - | 32 W/m² | - |
| 1778113153 | 32.22° C | 48% | 1007.7 hPa | 0 mm | - | 33 W/m² | - |
| 1778112853 | 32.78° C | 48% | 1007.4 hPa | 0 mm | - | 32 W/m² | - |
| 1778112553 | 32.78° C | 47% | 1007.2 hPa | 0 mm | - | 36 W/m² | - |
| 1778112252 | 33.33° C | 47% | 1007.2 hPa | 0 mm | - | 38 W/m² | - |
| 1778111952 | 33.33° C | 46% | 1007.1 hPa | 0 mm | - | 49 W/m² | - |
| 1778111653 | 33.89° C | 46% | 1007.1 hPa | 0 mm | - | 81 W/m² | - |
| 1778111353 | 33.89° C | 45% | 1007 hPa | 0 mm | - | 161 W/m² | - |
| 1778111052 | 34.44° C | 43% | 1006.7 hPa | 0 mm | - | 73 W/m² | - |
| 1778110752 | 35° C | 41% | 1006.6 hPa | 0 mm | - | 72 W/m² | - |
| 1778110452 | 35.56° C | 38% | 1006.7 hPa | 0 mm | - | 241 W/m² | - |
| 1778110152 | 36.11° C | 36% | 1006.5 hPa | 0 mm | - | 173 W/m² | - |
* Rain latest hour (hover to see other rain measurements)
** Current wind speed in m/s (hover to see current wind gust speed)